Regional Weather Roundup
Issued by NWS Bismarck, ND

Home | Current Version | Previous Version | Text Only | Print | Product List | Glossary On
Versions: 1 2 3 4 5 6 7 8 9 10 11 12 13 14 15 16 17 18 19 20 21 22 23 24 25 26 27 28 29 30 31 32 33 34 35 36 37 38 39 40 41 42 43 44 45 46 47 48 49 50
000
ASUS43 KBIS 261902
RWRBIS

NWR BROADCAST TEXT
NATIONAL WEATHER SERVICE BISMARCK ND
200 PM CDT FRI MAY 26 2017

NOTE: "FAIR" INDICATES FEW OR NO CLOUDS BELOW 12,000 FEET WITH NO
SIGNIFICANT WEATHER AND/OR OBSTRUCTIONS TO VISIBILITY.


CITY           SKY/WX    TMP DP  RH WIND       PRES   REMARKS
WILLISTON      CLOUDY    65  36  34 NW20G28   29.77S
MINOT          CLOUDY    60  42  51 W25G32    29.72S
MINOT AFB      CLOUDY    59  42  52 NW20      29.71R
BISMARCK       CLOUDY    65  40  39 NW21G28   29.77F
DICKINSON      FAIR      63  33  32 NW24G37   29.79S
GARRISON         N/A     60  41  49 W21G35    29.74S
HETTINGER ARPT PTSUNNY   63  36  36 NW20G31   29.85R
JAMESTOWN      CLOUDY    59  43  55 W15G24    29.75R
HAZEN          CLOUDY    63  41  45 NW16G24   29.78S
LINTON         MOCLDY    63  46  55 NW12      29.81F
STANLEY        CLOUDY    57  43  58 NW15G23   29.76S
TIOGA          MOCLDY    61  36  39 NW29G37   29.75F
WATFORD CITY   FAIR      63  36  36 W20G29    29.77S
$$

CITY           SKY/WX    TMP DP  RH WIND       PRES   REMARKS
GRAND FORKS    PTSUNNY   68  46  45 W15G25    29.68R
GRAND FORKS AF CLOUDY    64  45  49 W12       29.69R
DEVILS LAKE    CLOUDY    60  46  59 W24       29.71R
FARGO          PTSUNNY   71  45  39 W18G24    29.70S
CAVALIER       MOCLDY    64  43  45 SW13G20   29.63S
GWINNER        MOCLDY    64  45  48 MISG      29.76R
LANGDON        MOCLDY    63  46  55 W20G30    29.66R
ROLLA          MOCLDY    59  46  63 W16G26    29.67F
$$

CITY           SKY/WX    TMP DP  RH WIND       PRES   REMARKS
ABERDEEN       FAIR      70  40  33 NW14      29.79R
MOBRIDGE       FAIR      67  41  38 NW16      29.80S
BUFFALO          N/A     64  36  35 W23G30    29.82S
RAPID CITY     FAIR      66  36  32 NW9       29.89F
GLASGOW        PTSUNNY   64  33  31 NW16      29.82R
SIDNEY         FAIR      63  36  36 NW20G25   29.80F
WOLF POINT     PTSUNNY   67  31  26 NW16G25   29.80S
GLENDIVE       PTSUNNY   64  35  34 NW15G23   29.84S
MILES CITY     PTSUNNY   67  31  26 NW10G22   29.87F
BAKER          CLOUDY    59  35  40 NW20      29.87R
$$

CITY           SKY/WX    TMP DP  RH WIND       PRES   REMARKS
BILLINGS       PTSUNNY   60  31  33 W3        29.92F
GREAT FALLS    PTSUNNY   57  34  41 MISG      29.94R
$$




USA.gov is the U.S. government's official web portal to all federal, state and local government web resources and services.